BREEZE-KM DEB, 41722

Orbit data source: Space-Track

BREEZE-KM DEB, 41722 is space debris in LEO originally from a launch on Tue, 31 Mar 2015 UTC launched from the Plesetsk Missile And Space Complex (PKMTR). Debris objects in space refer to the collection of defunct objects orbiting the Earth. Examples of debris include non-operational satellites, rocket bodies, and fragments generated from explosions, collisions, or faulty payload assembly.

Loading next visibility...
Identifier
41722, 2015-020K
Orbit
LEO
Country
Flag of CISCIS
Related business
Manufacturer
Khrunichev
Mission
Spacecraft
Bus & Motor
Unknown
Mass
Unknown
Launch date (UTC)
2015-03-31 (11 years ago)
Launch vehicle
Unknown
Launch site
Plesetsk Missile And Space Complex (PKMTR)
Object type
Payload
Rocket body
Debris
Shape & HBR
Unknown shape, 0.1 m
Radar Cross Section
Small (<0.1 m²)

Expand to show TLE details & history
Last TLE update: 16 hours ago

TLE from 16 hours ago
0 BREEZE-KM DEB
1 41722U 15020K   26036.55330333  .00000042  00000-0  13963-3 0  9997
2 41722  82.4945 343.1750 0179535 153.3759 207.6696 12.70528056475082
Epoch: 2026-02-05T13:16Z
TLE epoch observation values (Epoch: 2026-02-05T13:16:45.407Z)
Latitude
-0.00004°
Longitude
8.28192°
Altitude
1,506.433 km
Speed
7.054 km/s
True Right ascension
22h 52m 41s
True Declination
0° 00' 00"
Sunlit
Object was in daylight at epoch
Visualization orbit readout
Latitude
Unknown
Longitude
Unknown
Altitude
Unknown
Speed
Unknown
Apparent Right ascension
Unknown
Apparent Declination
Unknown
Sunlit
N/A
Visualization observer readout
Local Sidereal Time
07:24:33
Azimuth
Unknown
Elevation
Unknown
Doppler factor
Unknown
Orbital elements
Apogee altitude
1,516.334 km
Perigee altitude
1,237.867 km
Semi-major axis
7,755.238 km
Eccentricity
0.01795
Inclination
82.4945°
RAAN
343.175°
Arg. of periapsis
153.3759°
True anomaly
206.73291°
Mean anomaly
207.6696°
Eccentric anomaly
207.19941°
Mean motion
3.17798 °/min
Orbital period
113.28 mins
BSTAR
0.00013963
Loading maneuver chart data...
Computing Atmospheric mass density...
Loading historical data...
Loading historical data...
Loading historical data...
Loading historical data...
Loading historical data...
Loading historical data...
Loading historical data...

Documentation

Showing up to 5 results
|